CW9648 Weather Reports


Display with metric or nautical units.
time (UTC)temp
F
wind
direction
speed
MPH
gust
MPH
rain 1hr
in
rain 24hr
in
rain mn
in
humidity
%
barometer
mb
20260503042504 54 0 0.0 0.0 0.00 0.01 0.01 93 1021.6
20260503042004 54 0 0.0 0.0 0.00 0.01 0.01 93 1021.5
20260503041504 54 0 0.0 0.0 0.00 0.01 0.01 93 1021.5
20260503041004 54 0 0.0 0.0 0.00 0.01 0.01 93 1021.5
20260503040504 54 0 0.0 0.0 0.00 0.01 0.01 93 1021.5
20260503040004 54 0 0.0 0.0 0.00 0.01 0.01 93 1021.5
20260503035504 55 0 0.0 0.0 0.00 0.01 0.01 93 1021.6
20260503035004 55 0 0.0 0.0 0.00 0.01 0.01 93 1021.7
20260503034504 55 0 0.0 0.0 0.00 0.01 0.01 93 1021.7
20260503034004 55 0 0.0 0.0 0.00 0.01 0.01 93 1021.5
20260503033525 55 0 0.0 0.0 0.00 0.01 0.01 93 1021.5
20260503033004 55 0 0.0 0.0 0.00 0.01 0.01 92 1021.5
20260503032504 55 0 0.0 0.0 0.00 0.01 0.01 92 1021.4
20260503032004 56 0 0.0 0.0 0.00 0.01 0.01 92 1021.5
20260503031504 56 0 0.0 0.0 0.00 0.01 0.01 92 1021.3
20260503031004 56 0 0.0 0.0 0.00 0.01 0.01 92 1021.3
20260503030525 56 0 0.0 0.0 0.00 0.01 0.01 92 1021.4
20260503030004 56 0 0.0 0.0 0.00 0.01 0.01 91 1021.4
20260503025504 56 0 0.0 0.0 0.00 0.01 0.01 91 1021.3
20260503025004 56 0 0.0 0.0 0.00 0.01 0.01 91 1021.3
20260503024504 57 0 0.0 0.0 0.00 0.01 0.01 91 1021.3
20260503024004 57 0 0.0 0.0 0.00 0.01 0.01 90 1021.1
20260503023525 57 0 0.0 0.0 0.00 0.01 0.01 90 1021.0
20260503023004 57 0 0.0 0.0 0.00 0.01 0.01 90 1021.1
20260503022504 57 0 0.0 0.0 0.00 0.01 0.01 89 1021.0
20260503022004 58 0 0.0 0.0 0.00 0.01 0.01 89 1020.9
20260503021504 58 0 0.0 0.0 0.00 0.01 0.01 88 1020.9
20260503021004 58 0 0.0 0.0 0.00 0.01 0.01 88 1020.9
20260503020504 59 0 0.0 0.0 0.00 0.01 0.01 87 1020.8
20260503020004 59 0 0.0 0.0 0.00 0.01 0.01 87 1020.7
20260503015504 59 0 0.0 0.0 0.00 0.02 0.01 86 1020.7
20260503015004 59 0 0.0 0.0 0.00 0.02 0.01 86 1020.6
20260503014525 59 0 0.0 0.0 0.00 0.03 0.01 85 1020.6
20260503014004 60 0 0.0 0.0 0.00 0.03 0.01 85 1020.5
20260503013525 60 0 0.0 0.0 0.00 0.03 0.01 84 1020.5
20260503013004 61 0 0.0 0.0 0.00 0.03 0.01 84 1020.3
20260503012504 61 0 0.0 0.0 0.00 0.04 0.01 84 1020.4
20260503012004 61 0 0.0 0.0 0.00 0.05 0.01 84 1020.3
20260503011525 62 0 0.0 0.0 0.00 0.05 0.01 82 1020.2
20260503011005 62 0 0.0 0.0 0.00 0.05 0.01 82 1020.1
20260503010504 63 0 0.0 0.0 0.00 0.06 0.01 82 1020.0
20260503010004 64 0 0.0 0.0 0.00 0.06 0.01 81 1019.9
20260503005525 64 0 0.0 0.0 0.00 0.06 0.01 80 1019.9
20260503005004 65 0 0.0 0.0 0.00 0.07 0.01 80 1019.7
20260503004504 66 0 0.0 0.0 0.00 0.07 0.01 78 1019.6
20260503004004 66 0 0.0 0.0 0.00 0.08 0.01 76 1019.7
20260503003525 67 0 0.0 0.0 0.00 0.08 0.01 74 1019.6
20260503003025 67 0 0.0 0.0 0.00 0.08 0.01 74 1019.6
20260503002525 68 0 0.0 0.0 0.00 0.08 0.01 67 1019.6
20260503002004 68 0 0.0 0.0 0.00 0.08 0.01 66 1019.6
20260503001504 70 0 0.0 0.0 0.00 0.08 0.01 67 1019.6
20260503001004 70 0 0.0 0.0 0.00 0.08 0.01 66 1019.6
20260503000504 71 0 0.0 0.0 0.00 0.08 0.01 63 1019.6
20260503000004 72 90 0.0 1.0 0.00 0.08 0.01 58 1019.6
20260502235504 72 88 0.0 3.0 0.00 0.09 0.01 56 1019.5
20260502235004 73 71 0.0 3.0 0.00 0.09 0.01 51 1019.5
20260502234504 73 38 1.0 4.0 0.00 0.09 0.01 51 1019.6
20260502234025 73 21 1.0 4.0 0.00 0.09 0.01 51 1019.6
20260502233504 74 339 2.0 4.0 0.00 0.09 0.01 49 1019.6
20260502233004 74 336 2.0 4.0 0.00 0.10 0.01 49 1019.5
20260502232505 74 341 2.0 6.0 0.00 0.11 0.01 49 1019.5
20260502232004 74 351 2.0 6.0 0.00 0.12 0.01 48 1019.5
20260502231504 74 4 2.0 8.0 0.00 0.13 0.01 50 1019.7
20260502231004 73 360 3.0 8.0 0.00 0.14 0.01 48 1019.5
20260502230504 73 355 3.0 6.0 0.00 0.15 0.01 48 1019.5
20260502230004 73 339 3.0 9.0 0.00 0.16 0.01 48 1019.6
20260502225504 74 343 3.0 9.0 0.00 0.17 0.01 46 1019.6
20260502225004 75 10 2.0 8.0 0.00 0.18 0.01 47 1019.5
20260502224504 75 2 3.0 10.0 0.00 0.19 0.01 46 1019.5
20260502224004 75 354 3.0 10.0 0.00 0.19 0.01 47 1019.6
20260502223504 76 21 2.0 10.0 0.00 0.20 0.01 47 1019.5
20260502223004 75 25 2.0 6.0 0.00 0.20 0.01 47 1019.5
20260502222504 74 359 3.0 13.0 0.00 0.21 0.01 51 1019.5
20260502222004 74 350 4.0 13.0 0.00 0.21 0.01 49 1019.5
20260502221525 73 341 3.0 9.0 0.00 0.21 0.01 49 1019.5
20260502221004 73 338 2.0 6.0 0.00 0.21 0.01 52 1019.6
20260502220504 73 340 2.0 8.0 0.00 0.21 0.01 51 1019.5
20260502220004 73 335 3.0 8.0 0.00 0.22 0.01 51 1019.5
20260502215504 74 324 5.0 11.0 0.00 0.23 0.01 50 1019.5
20260502215025 73 323 6.0 11.0 0.00 0.23 0.01 47 1019.4
20260502214525 74 338 4.0 9.0 0.00 0.24 0.01 47 1019.4
20260502214004 74 355 4.0 11.0 0.00 0.24 0.01 48 1019.4
20260502213504 74 340 4.0 11.0 0.00 0.25 0.01 47 1019.5
20260502213004 74 335 4.0 11.0 0.00 0.26 0.01 48 1019.5
20260502212504 74 338 5.0 14.0 0.00 0.27 0.01 48 1019.5
20260502212004 74 340 4.0 14.0 0.00 0.28 0.01 48 1019.5
20260502211504 75 1 4.0 10.0 0.00 0.28 0.01 48 1019.6
20260502211004 75 16 3.0 10.0 0.00 0.29 0.01 49 1019.6
20260502210504 75 16 3.0 10.0 0.00 0.29 0.01 49 1019.7
20260502210004 74 9 3.0 11.0 0.00 0.29 0.01 48 1019.8
20260502205504 74 19 3.0 11.0 0.00 0.29 0.01 49 1019.7
20260502205005 75 29 3.0 8.0 0.00 0.29 0.01 49 1019.8
20260502204503 75 29 3.0 8.0 0.00 0.29 0.01 49 1019.8
20260502204004 75 26 2.0 6.0 0.00 0.29 0.01 52 1020.0
20260502203504 75 356 3.0 10.0 0.00 0.29 0.01 53 1020.1
20260502203003 74 338 4.0 10.0 0.00 0.30 0.01 50 1020.1
20260502202525 74 347 3.0 8.0 0.00 0.30 0.01 50 1020.1
20260502202004 74 17 2.0 7.0 0.00 0.30 0.01 51 1020.2
20260502201503 74 347 3.0 9.0 0.00 0.30 0.01 49 1020.2
20260502201004 73 360 4.0 11.0 0.00 0.30 0.01 51 1020.2
20260502200524 74 27 4.0 11.0 0.00 0.30 0.01 48 1020.3
20260502200024 74 38 3.0 9.0 0.00 0.30 0.01 50 1020.3
20260502195503 74 346 2.0 9.0 0.00 0.30 0.01 52 1020.4
20260502195004 73 7 3.0 12.0 0.00 0.30 0.01 52 1020.4
20260502194503 73 68 3.0 12.0 0.00 0.30 0.01 49 1020.4
20260502194003 73 84 2.0 8.0 0.00 0.30 0.01 52 1020.5
20260502193525 72 324 5.0 15.0 0.00 0.30 0.01 51 1020.6
20260502193003 72 330 7.0 15.0 0.00 0.30 0.01 50 1020.7
20260502192504 72 342 4.0 13.0 0.00 0.30 0.01 51 1020.8
20260502192003 72 330 3.0 8.0 0.00 0.30 0.01 53 1020.7
20260502191504 72 330 5.0 12.0 0.00 0.30 0.01 53 1020.8
20260502191004 72 335 4.0 12.0 0.00 0.30 0.01 50 1021.0
20260502190504 72 1 2.0 8.0 0.00 0.30 0.01 53 1021.0
20260502190004 72 23 2.0 10.0 0.00 0.30 0.01 51 1021.1
20260502185504 72 348 4.0 12.0 0.00 0.30 0.01 51 1021.2
20260502185025 72 337 5.0 12.0 0.00 0.30 0.01 52 1021.3
20260502184504 71 338 6.0 12.0 0.00 0.30 0.01 51 1021.4
20260502184025 71 342 5.0 14.0 0.00 0.30 0.01 50 1021.4
20260502183504 72 350 4.0 14.0 0.00 0.30 0.01 51 1021.4
20260502183004 72 6 3.0 12.0 0.00 0.30 0.01 52 1021.4
20260502182525 71 5 2.0 6.0 0.00 0.30 0.01 57 1021.6
20260502182004 71 20 2.0 6.0 0.00 0.30 0.01 50 1021.6
20260502181504 71 348 4.0 10.0 0.00 0.30 0.01 54 1021.7
20260502181004 71 351 5.0 10.0 0.00 0.30 0.01 53 1021.7
20260502180504 71 32 4.0 9.0 0.00 0.30 0.01 53 1021.7
20260502170504 69 13 3.0 9.0 0.00 0.32 0.01 58 1022.0
20260502164004 68 334 4.0 10.0 0.00 0.33 0.01 63 1022.2
20260502163504 68 334 4.0 10.0 0.00 0.34 0.01 64 1022.2
20260502163011 68 352 3.0 10.0 0.00 0.34 0.01 66 1022.2
20260502162503 67 16 3.0 9.0 0.00 0.34 0.01 68 1022.1
20260502162025 67 342 4.0 9.0 0.00 0.34 0.01 68 1022.2
20260502161503 67 333 3.0 9.0 0.00 0.34 0.01 69 1022.1
20260502161003 67 12 2.0 8.0 0.00 0.34 0.01 72 1022.1
20260502160525 66 26 2.0 8.0 0.00 0.35 0.01 71 1022.2
20260502152003 63 348 3.0 7.0 0.00 0.39 0.01 85 1022.1
20260502151503 63 3 3.0 6.0 0.00 0.40 0.01 87 1022.0
20260502151003 62 3 3.0 8.0 0.00 0.41 0.01 89 1022.0
20260502150503 62 336 3.0 10.0 0.00 0.42 0.01 91 1022.1
20260502130503 53 330 3.0 6.0 0.00 0.65 0.01 89 1021.0
20260502123503 50 327 0.0 2.0 0.00 0.68 0.01 90 1020.4
20260502123004 50 345 0.0 1.0 0.00 0.69 0.01 90 1020.3
20260502122503 49 345 0.0 1.0 0.00 0.70 0.01 90 1020.3
20260502122004 49 345 0.0 1.0 0.00 0.71 0.01 91 1020.1
20260502121503 49 0 0.0 0.0 0.00 0.72 0.01 91 1020.0
20260502121004 49 0 0.0 0.0 0.00 0.74 0.01 91 1020.0
20260502120506 49 0 0.0 0.0 0.00 0.75 0.01 91 1019.8
20260502115504 49 0 0.0 0.0 0.00 0.79 0.01 91 1019.7
20260502115003 49 0 0.0 0.0 0.00 0.80 0.01 91 1019.5
20260502114504 49 0 0.0 0.0 0.00 0.81 0.01 91 1019.5
20260502114024 49 0 0.0 0.0 0.00 0.82 0.01 91 1019.4
20260502113503 49 0 0.0 0.0 0.00 0.83 0.01 91 1019.4
20260502113004 49 0 0.0 0.0 0.01 0.83 0.01 91 1019.2
20260502112503 50 0 0.0 0.0 0.01 0.84 0.01 91 1019.3
20260502112004 50 0 0.0 0.0 0.01 0.85 0.01 91 1019.2
20260502111503 50 0 0.0 0.0 0.01 0.85 0.01 91 1019.2
20260502111003 50 0 0.0 0.0 0.01 0.85 0.01 91 1019.2
20260502110503 50 0 0.0 0.0 0.01 0.86 0.01 91 1019.2
20260502110025 50 0 0.0 0.0 0.01 0.86 0.01 91 1019.1
20260502105510 50 0 0.0 0.0 0.01 0.86 0.01 91 1019.1
20260502105003 50 0 0.0 0.0 0.01 0.87 0.01 91 1018.8
20260502104503 50 345 0.0 1.0 0.01 0.88 0.01 91 1018.7
20260502104003 50 345 0.0 1.0 0.01 0.88 0.01 91 1018.7
20260502103503 50 345 0.0 1.0 0.01 0.89 0.01 91 1018.7
20260502103003 51 0 0.0 0.0 0.00 0.88 0.00 91 1018.7
20260502102503 51 0 0.0 0.0 0.00 0.89 0.00 91 1018.6
20260502101503 51 0 0.0 0.0 0.00 0.90 0.00 91 1018.6
20260502101003 51 343 0.0 2.0 0.00 0.90 0.00 91 1018.6
20260502100504 51 322 0.0 2.0 0.00 0.91 0.00 91 1018.4
20260502091503 52 320 1.0 4.0 0.00 0.94 0.00 91 1018.2
20260502091003 52 320 2.0 4.0 0.00 0.94 0.00 91 1018.2
20260502090524 52 324 2.0 4.0 0.00 0.94 0.00 91 1018.1
20260502071524 53 341 1.0 3.0 0.00 0.94 0.00 91 1017.7
20260502071003 53 324 2.0 3.0 0.00 0.94 0.00 91 1017.8
20260502070503 53 313 2.0 3.0 0.00 0.94 0.00 92 1017.8
20260502070003 53 310 2.0 3.0 0.00 0.94 0.00 92 1017.8
20260502065524 53 317 1.0 3.0 0.00 0.94 0.00 91 1017.7
20260502065003 53 329 1.0 3.0 0.00 0.95 0.00 91 1017.6
20260502064503 53 326 1.0 3.0 0.00 0.95 0.00 91 1017.6
20260502064024 53 323 1.0 3.0 0.00 0.95 0.00 92 1017.6
20260502063503 52 324 1.0 3.0 0.00 0.95 0.00 92 1017.6
20260502063003 52 334 0.0 2.0 0.00 0.95 0.00 92 1017.4
20260502062503 52 326 1.0 2.0 0.00 0.95 0.00 92 1017.7
20260502062024 52 328 1.0 2.0 0.00 0.96 0.00 92 1017.7
20260502061503 52 336 0.0 2.0 0.00 0.96 0.00 92 1017.7
20260502061003 52 349 0.0 1.0 0.00 0.96 0.00 92 1017.6
20260502060524 52 349 0.0 2.0 0.00 0.96 0.00 92 1017.6
20260502060003 52 305 1.0 3.0 0.00 0.96 0.00 92 1017.5
20260502055503 52 300 1.0 3.0 0.00 0.97 0.00 92 1017.6
20260502055003 52 312 1.0 3.0 0.00 0.97 0.00 92 1017.7
20260502054503 52 309 1.0 3.0 0.00 0.97 0.00 92 1017.7
20260502054003 53 299 1.0 3.0 0.00 0.97 0.00 92 1017.8
20260502053524 53 291 1.0 2.0 0.00 0.97 0.00 92 1017.8
20260502053003 52 287 1.0 2.0 0.00 0.97 0.00 92 1017.8
20260502052503 52 286 1.0 2.0 0.00 0.97 0.00 92 1017.9
20260502052024 52 286 0.0 2.0 0.00 0.97 0.00 92 1018.1
20260502051503 52 286 0.0 2.0 0.00 0.97 0.00 92 1018.0
20260502051003 52 297 0.0 2.0 0.00 0.97 0.00 92 1018.0
20260502050503 53 327 1.0 2.0 0.00 0.97 0.00 92 1018.0
20260502050003 52 326 1.0 2.0 0.00 0.97 0.00 92 1017.9
20260502045503 52 310 0.0 2.0 0.00 0.97 0.97 92 1018.0
20260502044503 52 316 0.0 2.0 0.00 0.97 0.97 92 1018.1
20260502044003 52 312 1.0 3.0 0.00 0.97 0.97 93 1018.1
20260502043503 52 311 1.0 3.0 0.00 0.97 0.97 93 1018.2
20260502043004 52 300 1.0 3.0 0.00 0.98 0.97 93 1018.2